User: anonymous   Login
Location: Kile Knob Observatory
(38.6083°N, 79.4792°W)
Time: 14:47:39
(UTC-05:00)
Language:

AO-7 - Orbit

View from above orbital plane
View from above orbital plane
View from above satellite
View from above satellite

Ground track
Ground track

The orbit data is extracted from the following two-line orbital elements,

1  7530U 74089B   19339.45581356 -.00000028  00000-0  10831-3 0  9992
2  7530 101.7709 305.5245 0012420  20.6450  94.0520 12.53641058 61790
Epoch (UTC): 05 December 2019 10:56:22
Eccentricity: 0.0012420
inclination: 101.7709°
perigee height: 1439 km
apogee height: 1459 km
right ascension of ascending node: 305.5245°
argument of perigee: 20.6450°
revolutions per day: 12.53641058
mean anomaly at epoch: 94.0520°
orbit number at epoch: 6179

The dashed part of the orbit path shows where the satellite is in the earth's shadow,  

DLR